Weather History for Medford, OR

Change the Weather History Date:

Monday, June 2, 2014

  Actual Average Record
Temperature  
Mean Temperature 68 °F 64 °F  
Max Temperature 86 °F 78 °F 102 °F (1924)
Min Temperature 50 °F 50 °F 35 °F (1976)
Degree Days  
Heating Degree Days 0 4  
Month to date heating degree days 0 8  
Since 1 June heating degree days 0 8  
Since 1 July heating degree days 4157 4205  
Cooling Degree Days 3 2  
Month to date cooling degree days 5 4  
Year to date cooling degree days 61 42  
Since 1 June cooling degree days 5 4  
Growing Degree Days 18 (Base 50)    
Moisture  
Dew Point 46 °F    
Average Humidity 52    
Maximum Humidity 83    
Minimum Humidity 20    
Precipitation  
Precipitation 0.00 in 0.03 in 0.50 in (1943)
Month to date precipitation 0.00 0.07  
Year to date precipitation 10.12 8.91  
Snow  
Snow 0.00 in 0.00 in - ()
Month to date snowfall 0.0 0.0  
Since 1 July snowfall 3.4 4.1  
Snow Depth 0.00 in    
Sea Level Pressure  
Sea Level Pressure 29.86 in    
Wind  
Wind Speed 4 mph (North)    
Max Wind Speed 16 mph    
Max Gust Speed 21 mph    
Visibility 10 miles    
Events      
T = Trace of Precipitation, MM = Missing Value Source: NWS Daily Summary

Daily Weather History Graph

Daily Weather History Graph

Search for Another Location

Airport:

Trip Planner

Search our weather history database for the weather conditions in past years. The results will help you decide how hot, cold, wet, or windy it might be!

Date:

Astronomy

Jun. 02, 2014 Rise Set
Actual Time 5:36 AM PDT 8:42 PM PDT
Civil Twilight 5:02 AM PDT 9:16 PM PDT
Nautical Twilight 4:19 AM PDT 10:00 PM PDT
Astronomical Twilight 3:27 AM PDT 10:52 PM PDT
Moon 10:12 AM PDT (6/2) No Moon Set
Length of Visible Light 16h 14m
Length of Day
15h 06m
Waxing Crescent, 22% of the Moon is Illuminated
Jun 2
Waxing Crescent
Jun 5
First Quarter
Jun 12
Full
Jun 19
Last Quarter
Jun 27
New

Hourly Weather History & Observations

Time (PDT) Temp. Heat Index Dew Point Humidity Pressure Visibility Wind Dir Wind Speed Gust Speed Precip Events Conditions
12:53 AM 60.1 °F - 48.9 °F 67% 29.89 in 10.0 mi NNE 3.5 mph - N/A   Clear
1:53 AM 59.0 °F - 48.9 °F 69% 29.89 in 10.0 mi NW 4.6 mph - N/A   Clear
2:53 AM 55.9 °F - 46.9 °F 72% 29.89 in 10.0 mi Calm Calm - N/A   Clear
3:53 AM 55.0 °F - 46.9 °F 74% 29.89 in 10.0 mi Calm Calm - N/A   Clear
4:53 AM 54.0 °F - 46.9 °F 77% 29.89 in 10.0 mi Calm Calm - N/A   Clear
5:15 AM 54.0 °F - 46.0 °F 75% 29.91 in 1.8 mi Calm Calm - N/A   Haze
5:24 AM 53.1 °F - 46.0 °F 77% 29.91 in 4.0 mi North 3.5 mph - N/A   Haze
5:53 AM 51.1 °F - 46.0 °F 83% 29.89 in 10.0 mi NNE 3.5 mph - N/A   Clear
6:53 AM 52.0 °F - 46.0 °F 80% 29.91 in 10.0 mi Calm Calm - N/A   Clear
7:53 AM 55.9 °F - 48.0 °F 75% 29.90 in 10.0 mi Calm Calm - N/A   Clear
8:53 AM 61.0 °F - 48.0 °F 62% 29.89 in 10.0 mi Calm Calm - N/A   Clear
9:53 AM 64.4 °F - 48.2 °F 56% 29.90 in 10.0 mi Calm Calm - N/A   Clear
10:53 AM 68.0 °F - 48.2 °F 49% 29.88 in 10.0 mi Calm Calm - N/A   Clear
11:53 AM 73.0 °F - 48.0 °F 41% 29.85 in 10.0 mi NW 6.9 mph - N/A   Clear
12:53 PM 75.0 °F - 48.9 °F 40% 29.82 in 10.0 mi Variable 3.5 mph - N/A   Clear
1:53 PM 79.0 °F - 51.1 °F 38% 29.81 in 10.0 mi Variable 6.9 mph - N/A   Clear
2:53 PM 82.0 °F 81.2 °F 53.1 °F 37% 29.79 in 10.0 mi Variable 5.8 mph - N/A   Scattered Clouds
3:53 PM 82.9 °F - 51.1 °F 33% 29.78 in 10.0 mi NW 11.5 mph - N/A   Clear
4:53 PM 84.9 °F - 41.0 °F 21% 29.78 in 10.0 mi NNW 9.2 mph - N/A   Scattered Clouds
5:53 PM 84.2 °F - 39.2 °F 20% 29.80 in 10.0 mi North 11.5 mph - N/A   Scattered Clouds
6:53 PM 81.0 °F - 41.0 °F 24% 29.79 in 10.0 mi North 12.7 mph - N/A   Scattered Clouds
7:53 PM 78.1 °F - 41.0 °F 27% 29.81 in 10.0 mi North 12.7 mph - N/A   Scattered Clouds
8:53 PM 72.0 °F - 43.0 °F 35% 29.84 in 10.0 mi NNE 3.5 mph - N/A   Partly Cloudy
9:53 PM 69.1 °F - 43.0 °F 39% 29.86 in 10.0 mi Calm Calm - N/A   Clear
10:53 PM 66.0 °F - 44.1 °F 45% 29.87 in 10.0 mi Calm Calm - N/A   Clear
11:53 PM 61.0 °F - 45.0 °F 56% 29.88 in 10.0 mi NNE 3.5 mph - N/A   Clear